Time,TemperatureF,DewpointF,PressureIn,WindDirection,WindDirectionDegrees,WindSpeedMPH,WindSpeedGustMPH,Humidity,HourlyPrecipIn,Conditions,Clouds,dailyrainin,SoftwareType,DateUTC
2013-03-29 00:14:00,41.1,30.0,30.32,SSW,207,3.0,5.0,66,0.00,,,0.00,weatherlink.com 1.10,2013-03-29 05:14:00,
2013-03-29 00:29:00,41.2,30.0,30.32,SSW,198,3.0,6.0,65,0.00,,,0.00,weatherlink.com 1.10,2013-03-29 05:29:00,
2013-03-29 00:45:00,41.3,30.0,30.32,South,190,3.0,5.0,64,0.00,,,0.00,weatherlink.com 1.10,2013-03-29 05:45:00,
2013-03-29 01:00:00,41.0,30.0,30.32,SSW,213,3.0,5.0,65,0.00,,,0.00,weatherlink.com 1.10,2013-03-29 06:00:00,
2013-03-29 01:15:00,40.9,30.0,30.32,South,190,3.0,6.0,65,0.00,,,0.00,weatherlink.com 1.10,2013-03-29 06:15:00,
2013-03-29 01:30:00,40.3,31.0,30.32,South,169,0.0,2.0,69,0.00,,,0.00,weatherlink.com 1.10,2013-03-29 06:30:00,
2013-03-29 01:45:00,40.3,30.0,30.32,South,185,0.0,2.0,68,0.00,,,0.00,weatherlink.com 1.10,2013-03-29 06:45:00,
2013-03-29 02:00:00,38.5,31.0,30.32,ENE,74,0.0,3.0,75,0.00,,,0.00,weatherlink.com 1.10,2013-03-29 07:00:00,
2013-03-29 02:15:00,37.4,31.0,30.32,ENE,74,0.0,0.0,78,0.00,,,0.00,weatherlink.com 1.10,2013-03-29 07:15:00,
2013-03-29 02:30:00,37.2,31.0,30.32,ENE,74,0.0,0.0,79,0.00,,,0.00,weatherlink.com 1.10,2013-03-29 07:30:00,
2013-03-29 02:45:00,37.0,31.0,30.32,ENE,74,0.0,0.0,79,0.00,,,0.00,weatherlink.com 1.10,2013-03-29 07:45:00,
2013-03-29 03:00:00,37.1,31.0,30.31,ENE,74,0.0,0.0,80,0.00,,,0.00,weatherlink.com 1.10,2013-03-29 08:00:00,
2013-03-29 03:15:00,36.8,31.0,30.31,ENE,74,0.0,0.0,80,0.00,,,0.00,weatherlink.com 1.10,2013-03-29 08:15:00,
2013-03-29 03:30:00,36.3,31.0,30.31,ENE,74,0.0,0.0,81,0.00,,,0.00,weatherlink.com 1.10,2013-03-29 08:30:00,
2013-03-29 03:45:00,35.9,31.0,30.31,ENE,74,0.0,0.0,81,0.00,,,0.00,weatherlink.com 1.10,2013-03-29 08:45:00,
2013-03-29 04:01:00,35.6,31.0,30.30,ENE,74,0.0,0.0,82,0.00,,,0.00,weatherlink.com 1.10,2013-03-29 09:01:00,
2013-03-29 04:16:00,35.5,31.0,30.30,ENE,74,0.0,0.0,82,0.00,,,0.00,weatherlink.com 1.10,2013-03-29 09:16:00,
2013-03-29 05:31:00,33.8,30.0,30.30,ENE,74,0.0,1.0,84,0.00,,,0.00,weatherlink.com 1.10,2013-03-29 10:31:00,
2013-03-29 05:46:00,33.9,30.0,30.30,ENE,76,0.0,1.0,84,0.00,,,0.00,weatherlink.com 1.10,2013-03-29 10:46:00,
2013-03-29 06:01:00,34.2,30.0,30.30,ENE,76,0.0,2.0,84,0.00,,,0.00,weatherlink.com 1.10,2013-03-29 11:01:00,
2013-03-29 06:16:00,34.7,30.0,30.31,ENE,77,0.0,2.0,83,0.00,,,0.00,weatherlink.com 1.10,2013-03-29 11:16:00,
2013-03-29 06:31:00,34.7,30.0,30.31,ENE,78,0.0,1.0,82,0.00,,,0.00,weatherlink.com 1.10,2013-03-29 11:31:00,
2013-03-29 06:46:00,34.5,30.0,30.31,ENE,78,0.0,1.0,83,0.00,,,0.00,weatherlink.com 1.10,2013-03-29 11:46:00,
2013-03-29 07:01:00,35.1,30.0,30.32,ESE,123,1.0,2.0,82,0.00,,,0.00,weatherlink.com 1.10,2013-03-29 12:01:00,
2013-03-29 07:16:00,35.8,31.0,30.32,ESE,123,2.0,2.0,81,0.00,,,0.00,weatherlink.com 1.10,2013-03-29 12:16:00,
2013-03-29 07:32:00,36.8,31.0,30.32,SE,138,0.0,2.0,79,0.00,,,0.00,weatherlink.com 1.10,2013-03-29 12:32:00,
2013-03-29 07:47:00,37.6,31.0,30.32,SE,132,3.0,4.0,77,0.00,,,0.00,weatherlink.com 1.10,2013-03-29 12:47:00,
2013-03-29 08:02:00,38.3,32.0,30.33,SE,141,1.0,4.0,77,0.00,,,0.00,weatherlink.com 1.10,2013-03-29 13:02:00,
2013-03-29 08:17:00,39.5,32.0,30.33,SE,128,3.0,5.0,75,0.00,,,0.00,weatherlink.com 1.10,2013-03-29 13:17:00,
2013-03-29 08:32:00,40.2,33.0,30.33,SE,132,2.0,5.0,74,0.00,,,0.00,weatherlink.com 1.10,2013-03-29 13:32:00,
2013-03-29 08:47:00,40.7,33.0,30.33,ESE,117,2.0,4.0,75,0.00,,,0.00,weatherlink.com 1.10,2013-03-29 13:47:00,
2013-03-29 09:02:00,42.0,34.0,30.33,SE,134,2.0,5.0,74,0.00,,,0.00,weatherlink.com 1.10,2013-03-29 14:02:00,
2013-03-29 09:17:00,43.8,35.0,30.33,South,178,2.0,5.0,72,0.00,,,0.00,weatherlink.com 1.10,2013-03-29 14:17:00,
2013-03-29 09:32:00,45.5,35.0,30.33,SSE,148,2.0,4.0,67,0.00,,,0.00,weatherlink.com 1.10,2013-03-29 14:32:00,
2013-03-29 09:47:00,47.0,36.0,30.33,ESE,123,3.0,6.0,65,0.00,,,0.00,weatherlink.com 1.10,2013-03-29 14:47:00,
2013-03-29 10:02:00,48.0,35.0,30.33,SE,136,3.0,8.0,60,0.00,,,0.00,weatherlink.com 1.10,2013-03-29 15:02:00,
2013-03-29 10:17:00,48.9,34.0,30.33,South,173,3.0,5.0,57,0.00,,,0.00,weatherlink.com 1.10,2013-03-29 15:17:00,
2013-03-29 10:48:00,50.8,34.0,30.33,South,173,3.0,7.0,52,0.00,,,0.00,weatherlink.com 1.10,2013-03-29 15:48:00,
2013-03-29 11:03:00,51.6,32.0,30.33,South,169,3.0,7.0,48,0.00,,,0.00,weatherlink.com 1.10,2013-03-29 16:03:00,
2013-03-29 11:18:00,52.6,33.0,30.33,SE,128,6.0,8.0,48,0.00,,,0.00,weatherlink.com 1.10,2013-03-29 16:18:00,
2013-03-29 11:33:00,52.8,32.0,30.33,East,83,1.0,9.0,46,0.00,,,0.00,weatherlink.com 1.10,2013-03-29 16:33:00,
2013-03-29 11:48:00,53.6,34.0,30.32,SE,131,0.0,7.0,48,0.00,,,0.00,weatherlink.com 1.10,2013-03-29 16:48:00,
2013-03-29 12:03:00,54.0,34.0,30.32,East,92,2.0,8.0,47,0.00,,,0.00,weatherlink.com 1.10,2013-03-29 17:03:00,
2013-03-29 12:18:00,54.2,34.0,30.32,NE,40,0.0,9.0,47,0.00,,,0.00,weatherlink.com 1.10,2013-03-29 17:18:00,
2013-03-29 12:33:00,54.8,35.0,30.31,SSW,192,2.0,10.0,47,0.00,,,0.00,weatherlink.com 1.10,2013-03-29 17:33:00,
2013-03-29 12:48:00,54.8,35.0,30.30,East,84,2.0,9.0,47,0.00,,,0.00,weatherlink.com 1.10,2013-03-29 17:48:00,
2013-03-29 13:03:00,55.7,36.0,30.30,SSW,205,3.0,5.0,47,0.00,,,0.00,weatherlink.com 1.10,2013-03-29 18:03:00,
2013-03-29 13:18:00,56.1,35.0,30.30,ENE,75,2.0,9.0,45,0.00,,,0.00,weatherlink.com 1.10,2013-03-29 18:18:00,
2013-03-29 13:33:00,56.1,34.0,30.30,ESE,107,1.0,8.0,44,0.00,,,0.00,weatherlink.com 1.10,2013-03-29 18:33:00,
2013-03-29 13:48:00,56.2,35.0,30.29,ESE,103,3.0,6.0,45,0.00,,,0.00,weatherlink.com 1.10,2013-03-29 18:48:00,
2013-03-29 14:03:00,57.4,35.0,30.29,ESE,104,5.0,8.0,43,0.00,,,0.00,weatherlink.com 1.10,2013-03-29 19:03:00,
2013-03-29 14:19:00,56.7,34.0,30.28,East,84,0.0,5.0,42,0.00,,,0.00,weatherlink.com 1.10,2013-03-29 19:19:00,
2013-03-29 14:34:00,56.5,33.0,30.27,East,99,2.0,5.0,42,0.00,,,0.00,weatherlink.com 1.10,2013-03-29 19:34:00,
2013-03-29 14:49:00,56.9,33.0,30.26,South,182,2.0,5.0,41,0.00,,,0.00,weatherlink.com 1.10,2013-03-29 19:49:00,
2013-03-29 15:04:00,58.1,33.0,30.26,SE,128,1.0,4.0,39,0.00,,,0.00,weatherlink.com 1.10,2013-03-29 20:04:00,
2013-03-29 15:19:00,58.7,33.0,30.26,North,355,5.0,6.0,38,0.00,,,0.00,weatherlink.com 1.10,2013-03-29 20:19:00,
2013-03-29 15:34:00,58.4,33.0,30.25,East,88,2.0,8.0,39,0.00,,,0.00,weatherlink.com 1.10,2013-03-29 20:34:00,
2013-03-29 15:50:00,58.6,33.0,30.25,NNW,327,1.0,5.0,38,0.00,,,0.00,weatherlink.com 1.10,2013-03-29 20:50:00,
2013-03-29 16:04:00,58.5,33.0,30.25,ENE,75,1.0,5.0,39,0.00,,,0.00,weatherlink.com 1.10,2013-03-29 21:04:00,
2013-03-29 16:19:00,58.4,33.0,30.24,NNW,328,3.0,5.0,38,0.00,,,0.00,weatherlink.com 1.10,2013-03-29 21:19:00,
2013-03-29 16:34:00,58.8,33.0,30.24,NNW,336,3.0,5.0,38,0.00,,,0.00,weatherlink.com 1.10,2013-03-29 21:34:00,
2013-03-29 16:49:00,58.7,34.0,30.24,ENE,60,0.0,6.0,39,0.00,,,0.00,weatherlink.com 1.10,2013-03-29 21:49:00,
2013-03-29 17:04:00,58.5,32.0,30.23,NW,325,4.0,6.0,37,0.00,,,0.00,weatherlink.com 1.10,2013-03-29 22:04:00,
2013-03-29 17:19:00,58.8,32.0,30.23,ENE,63,0.0,3.0,37,0.00,,,0.00,weatherlink.com 1.10,2013-03-29 22:19:00,
2013-03-29 17:35:00,58.0,34.0,30.23,ESE,105,5.0,6.0,40,0.00,,,0.00,weatherlink.com 1.10,2013-03-29 22:35:00,
2013-03-29 17:50:00,57.5,33.0,30.23,SE,142,0.0,2.0,39,0.00,,,0.00,weatherlink.com 1.10,2013-03-29 22:50:00,
2013-03-29 18:05:00,57.7,33.0,30.23,ESE,116,0.0,3.0,39,0.00,,,0.00,weatherlink.com 1.10,2013-03-29 23:05:00,
2013-03-29 18:20:00,57.0,33.0,30.23,ESE,107,2.0,3.0,40,0.00,,,0.00,weatherlink.com 1.10,2013-03-29 23:20:00,
2013-03-29 18:35:00,56.8,33.0,30.23,SE,135,0.0,3.0,40,0.00,,,0.00,weatherlink.com 1.10,2013-03-29 23:35:00,
2013-03-29 18:50:00,57.1,33.0,30.23,SE,136,0.0,1.0,40,0.00,,,0.00,weatherlink.com 1.10,2013-03-29 23:50:00,
2013-03-29 19:05:00,55.6,33.0,30.23,SE,136,0.0,2.0,42,0.00,,,0.00,weatherlink.com 1.10,2013-03-30 00:05:00,
2013-03-29 19:20:00,54.1,33.0,30.23,SE,136,0.0,0.0,45,0.00,,,0.00,weatherlink.com 1.10,2013-03-30 00:20:00,
2013-03-29 19:35:00,52.7,33.0,30.23,SE,136,1.0,2.0,47,0.00,,,0.00,weatherlink.com 1.10,2013-03-30 00:35:00,
2013-03-29 19:50:00,51.4,33.0,30.23,SE,136,0.0,1.0,50,0.00,,,0.00,weatherlink.com 1.10,2013-03-30 00:50:00,
2013-03-29 20:05:00,50.2,34.0,30.23,SE,136,0.0,0.0,54,0.00,,,0.00,weatherlink.com 1.10,2013-03-30 01:05:00,
2013-03-29 20:20:00,48.9,34.0,30.24,SE,136,0.0,1.0,56,0.00,,,0.00,weatherlink.com 1.10,2013-03-30 01:20:00,
2013-03-29 20:35:00,48.0,33.0,30.24,SE,136,0.0,0.0,57,0.00,,,0.00,weatherlink.com 1.10,2013-03-30 01:35:00,
2013-03-29 20:50:00,47.3,33.0,30.24,SE,135,1.0,3.0,59,0.00,,,0.00,weatherlink.com 1.10,2013-03-30 01:50:00,
2013-03-29 21:06:00,46.7,33.0,30.24,SE,146,1.0,4.0,60,0.00,,,0.00,weatherlink.com 1.10,2013-03-30 02:06:00,
2013-03-29 21:21:00,46.0,33.0,30.24,SE,130,1.0,5.0,61,0.00,,,0.00,weatherlink.com 1.10,2013-03-30 02:21:00,
2013-03-29 21:36:00,45.1,33.0,30.25,SE,131,0.0,4.0,62,0.00,,,0.00,weatherlink.com 1.10,2013-03-30 02:36:00,
2013-03-29 22:06:00,44.3,33.0,30.25,SSE,153,0.0,3.0,64,0.00,,,0.00,weatherlink.com 1.10,2013-03-30 03:06:00,
2013-03-29 22:21:00,43.8,33.0,30.24,SSE,152,2.0,4.0,65,0.00,,,0.00,weatherlink.com 1.10,2013-03-30 03:21:00,
2013-03-29 22:51:00,43.2,32.0,30.25,SSE,153,0.0,1.0,66,0.00,,,0.00,weatherlink.com 1.10,2013-03-30 03:51:00,
2013-03-29 23:06:00,43.0,32.0,30.25,SE,132,0.0,3.0,66,0.00,,,0.00,weatherlink.com 1.10,2013-03-30 04:06:00,
2013-03-29 23:21:00,42.5,32.0,30.24,SE,145,1.0,3.0,67,0.00,,,0.00,weatherlink.com 1.10,2013-03-30 04:21:00,
2013-03-29 23:36:00,42.0,32.0,30.24,SE,144,0.0,2.0,68,0.00,,,0.00,weatherlink.com 1.10,2013-03-30 04:36:00,
2013-03-29 23:51:00,41.6,32.0,30.24,SE,144,0.0,2.0,69,0.00,,,0.00,weatherlink.com 1.10,2013-03-30 04:51:00,